ZKTFL NZWR-NZAA

Flight info

Callsign ZKTFL
Flight time 0h 24m
Altitude 14000
Route SF2P SF H150 UKAPA UKAPA2D
Aircraft PC12/L-SDFGRWY/S

Departure

Time 2026-05-05 03:55
Airport Whangarei Airport (NZWR)

Arrival

Time 2026-05-05 04:19
Airport Auckland International Airport (NZAA)
Time Latitude Longitude Altitude Speed Heading
2026-05-05 03:49 -35.76764 174.36459 126 ft 0 kts 94°
2026-05-05 03:52 -35.76768 174.36468 126 ft 2 kts 136°
2026-05-05 03:52 -35.76798 174.36477 125 ft 8 kts 164°
2026-05-05 03:52 -35.76882 174.36489 124 ft 17 kts 195°
2026-05-05 03:52 -35.76916 174.36346 128 ft 24 kts 263°
2026-05-05 03:53 -35.76945 174.36097 127 ft 34 kts 262°
2026-05-05 03:53 -35.76976 174.35857 132 ft 20 kts 270°
2026-05-05 03:53 -35.76971 174.35770 134 ft 9 kts 200°
2026-05-05 03:53 -35.76985 174.35795 134 ft 0 kts 81°
2026-05-05 03:54 -35.76981 174.35818 134 ft 19 kts 78°
2026-05-05 03:54 -35.76927 174.36254 128 ft 78 kts 82°
2026-05-05 03:54 -35.76827 174.37015 297 ft 97 kts 78°
2026-05-05 03:55 -35.76721 174.37887 700 ft 99 kts 84°
2026-05-05 03:55 -35.76825 174.38689 1278 ft 92 kts 100°
2026-05-05 03:55 -35.77273 174.39334 1725 ft 115 kts 143°
2026-05-05 03:55 -35.78123 174.39420 2232 ft 134 kts 189°
2026-05-05 03:56 -35.79018 174.39085 2860 ft 133 kts 188°
2026-05-05 03:56 -35.79914 174.38777 3455 ft 134 kts 190°
2026-05-05 03:56 -35.80809 174.38452 4051 ft 134 kts 191°
2026-05-05 03:56 -35.81711 174.38136 4634 ft 135 kts 192°
2026-05-05 03:57 -35.82618 174.37815 5227 ft 136 kts 191°
2026-05-05 03:57 -35.83530 174.37498 5793 ft 137 kts 192°
2026-05-05 03:57 -35.84435 174.37181 6366 ft 137 kts 191°
2026-05-05 03:57 -35.85385 174.36850 6821 ft 152 kts 192°
2026-05-05 03:58 -35.86457 174.36474 7214 ft 167 kts 194°
2026-05-05 03:58 -35.87610 174.36067 7714 ft 176 kts 193°
2026-05-05 03:58 -35.88815 174.35669 8267 ft 181 kts 189°
2026-05-05 03:58 -35.90062 174.35344 8831 ft 186 kts 192°
2026-05-05 03:59 -35.91326 174.34953 9432 ft 189 kts 192°
2026-05-05 03:59 -35.92610 174.34578 10045 ft 191 kts 192°
2026-05-05 03:59 -35.93908 174.34205 10636 ft 192 kts 192°
2026-05-05 03:59 -35.95216 174.33829 11208 ft 193 kts 192°
2026-05-05 04:00 -35.96531 174.33449 11791 ft 194 kts 192°
2026-05-05 04:00 -35.97853 174.33069 12370 ft 195 kts 193°
2026-05-05 04:00 -35.99179 174.32671 12969 ft 197 kts 193°
2026-05-05 04:00 -36.00518 174.32286 13582 ft 198 kts 193°
2026-05-05 04:01 -36.01863 174.31903 14208 ft 199 kts 193°
2026-05-05 04:01 -36.03213 174.31516 14762 ft 200 kts 193°
2026-05-05 04:01 -36.04572 174.31123 15324 ft 201 kts 194°
2026-05-05 04:01 -36.05938 174.30728 15888 ft 202 kts 194°
2026-05-05 04:02 -36.07312 174.30332 16457 ft 203 kts 194°
2026-05-05 04:02 -36.08718 174.29923 16654 ft 226 kts 194°
2026-05-05 04:02 -36.10357 174.29450 16622 ft 254 kts 194°
2026-05-05 04:02 -36.12149 174.28931 16621 ft 274 kts 194°
2026-05-05 04:03 -36.14052 174.28376 16615 ft 286 kts 194°
2026-05-05 04:03 -36.16013 174.27813 16615 ft 291 kts 194°
2026-05-05 04:03 -36.17999 174.27243 16611 ft 295 kts 194°
2026-05-05 04:03 -36.20018 174.26657 16615 ft 299 kts 194°
2026-05-05 04:04 -36.22051 174.26066 16613 ft 301 kts 194°
2026-05-05 04:04 -36.24092 174.25471 16608 ft 303 kts 194°
2026-05-05 04:04 -36.26146 174.24877 16611 ft 303 kts 194°
2026-05-05 04:04 -36.28207 174.24292 16610 ft 303 kts 193°
2026-05-05 04:05 -36.28961 174.24148 16603 ft 303 kts 186°
2026-05-05 04:05 -36.29754 174.24118 16599 ft 304 kts 179°
2026-05-05 04:05 -36.31799 174.24605 16594 ft 303 kts 162°
2026-05-05 04:05 -36.33804 174.25438 16599 ft 304 kts 160°
2026-05-05 04:06 -36.35820 174.26249 16604 ft 305 kts 162°
2026-05-05 04:06 -36.37848 174.27003 16598 ft 304 kts 160°
2026-05-05 04:06 -36.39771 174.28083 16597 ft 303 kts 152°
2026-05-05 04:06 -36.41649 174.29272 16602 ft 303 kts 152°
2026-05-05 04:07 -36.43543 174.30441 16602 ft 304 kts 153°
2026-05-05 04:07 -36.45467 174.31604 16288 ft 314 kts 153°
2026-05-05 04:07 -36.47466 174.32813 15852 ft 323 kts 153°
2026-05-05 04:07 -36.49491 174.34044 15429 ft 322 kts 152°
2026-05-05 04:08 -36.51488 174.35268 15012 ft 319 kts 152°
2026-05-05 04:08 -36.53472 174.36476 14597 ft 316 kts 152°
2026-05-05 04:08 -36.55441 174.37675 14178 ft 314 kts 152°
2026-05-05 04:08 -36.57394 174.38865 13731 ft 311 kts 152°
2026-05-05 04:09 -36.59302 174.40028 13292 ft 308 kts 152°
2026-05-05 04:09 -36.61214 174.41197 12864 ft 305 kts 152°
2026-05-05 04:09 -36.63134 174.42371 12440 ft 302 kts 152°
2026-05-05 04:09 -36.64989 174.43505 12031 ft 299 kts 152°
2026-05-05 04:10 -36.66849 174.44642 11619 ft 296 kts 152°
2026-05-05 04:10 -36.68694 174.45771 11222 ft 293 kts 152°
2026-05-05 04:10 -36.70515 174.46886 10835 ft 290 kts 152°
2026-05-05 04:10 -36.72320 174.47993 10449 ft 287 kts 151°
2026-05-05 04:11 -36.74106 174.49087 10042 ft 285 kts 151°
2026-05-05 04:11 -36.75874 174.50172 9622 ft 284 kts 151°
2026-05-05 04:11 -36.77594 174.51218 9214 ft 257 kts 151°
2026-05-05 04:11 -36.79106 174.52141 8791 ft 228 kts 151°
2026-05-05 04:12 -36.80463 174.52978 8380 ft 209 kts 150°
2026-05-05 04:12 -36.81721 174.53753 7963 ft 196 kts 150°
2026-05-05 04:12 -36.82949 174.54516 7560 ft 205 kts 149°
2026-05-05 04:12 -36.84262 174.55340 7187 ft 216 kts 150°
2026-05-05 04:13 -36.85611 174.56163 6839 ft 220 kts 151°
2026-05-05 04:13 -36.86996 174.57008 6460 ft 222 kts 150°
2026-05-05 04:13 -36.88379 174.57859 6084 ft 222 kts 151°
2026-05-05 04:13 -36.89785 174.58718 5729 ft 227 kts 151°
2026-05-05 04:14 -36.91210 174.59599 5373 ft 229 kts 151°
2026-05-05 04:14 -36.92640 174.60492 5003 ft 229 kts 149°
2026-05-05 04:14 -36.94067 174.61376 4635 ft 229 kts 150°
2026-05-05 04:14 -36.95495 174.62250 4272 ft 227 kts 150°
2026-05-05 04:15 -36.96901 174.63124 3892 ft 227 kts 149°
2026-05-05 04:15 -36.98327 174.64014 3458 ft 229 kts 150°
2026-05-05 04:15 -36.99709 174.64922 3028 ft 226 kts 147°
2026-05-05 04:15 -37.01036 174.65948 2552 ft 217 kts 136°
2026-05-05 04:16 -37.01920 174.67321 2116 ft 191 kts 120°
2026-05-05 04:16 -37.02598 174.68582 1795 ft 153 kts 120°
2026-05-05 04:16 -37.03012 174.69625 1468 ft 126 kts 95°
2026-05-05 04:16 -37.03043 174.70659 1281 ft 108 kts 89°
2026-05-05 04:17 -37.03019 174.71547 1084 ft 100 kts 74°
2026-05-05 04:17 -37.02848 174.72380 949 ft 94 kts 73°
2026-05-05 04:17 -37.02683 174.73077 779 ft 79 kts 70°
2026-05-05 04:17 -37.02522 174.73749 680 ft 81 kts 73°
2026-05-05 04:18 -37.02350 174.74430 591 ft 85 kts 71°
2026-05-05 04:18 -37.02169 174.75110 516 ft 83 kts 72°
2026-05-05 04:18 -37.01998 174.75791 412 ft 83 kts 70°
2026-05-05 04:18 -37.01806 174.76443 224 ft 79 kts 68°
2026-05-05 04:19 -37.01629 174.77091 63 ft 79 kts 71°
2026-05-05 04:19 -37.01472 174.77663 22 ft 52 kts 70°
2026-05-05 04:19 -37.01385 174.77974 22 ft 41 kts 71°
2026-05-05 04:19 -37.01295 174.78270 24 ft 34 kts 59°
2026-05-05 04:20 -37.01165 174.78457 24 ft 25 kts 41°
2026-05-05 04:20 -37.01122 174.78506 23 ft 6 kts 41°
2026-05-05 04:20 -37.01099 174.78531 22 ft 9 kts 37°
2026-05-05 04:20 -37.01032 174.78619 23 ft 19 kts 56°
2026-05-05 04:21 -37.00967 174.78791 22 ft 21 kts 70°
2026-05-05 04:21 -37.00912 174.78983 22 ft 28 kts 70°
2026-05-05 04:21 -37.00849 174.79211 23 ft 31 kts 71°
2026-05-05 04:21 -37.00751 174.79324 22 ft 19 kts 18°
2026-05-05 04:22 -37.00688 174.79439 23 ft 11 kts 21°
2026-05-05 04:22 -37.00617 174.79435 22 ft 12 kts 46°
2026-05-05 04:22 -37.00603 174.79479 22 ft 0 kts 90°
2026-05-05 04:22 -37.00602 174.79475 23 ft 2 kts 121°
2026-05-05 04:23 -37.00605 174.79477 23 ft 0 kts 162°
2026-05-05 04:55 -37.00622 174.79444 24 ft 12 kts 226°
2026-05-05 04:55 -37.00679 174.79448 22 ft 11 kts 205°
2026-05-05 04:56 -37.00750 174.79313 25 ft 10 kts 171°
2026-05-05 04:56 -37.00824 174.79301 24 ft 16 kts 245°
2026-05-05 04:56 -37.00881 174.79097 23 ft 31 kts 251°
2026-05-05 04:56 -37.00948 174.78854 22 ft 26 kts 250°
2026-05-05 04:57 -37.01012 174.78654 24 ft 31 kts 237°
2026-05-05 04:57 -37.01161 174.78464 23 ft 28 kts 216°
2026-05-05 04:57 -37.01268 174.78390 24 ft 11 kts 104°
2026-05-05 04:57 -37.01215 174.78580 22 ft 49 kts 73°
2026-05-05 04:58 -37.01043 174.79202 44 ft 95 kts 71°
2026-05-05 04:58 -37.00835 174.79995 471 ft 96 kts 69°
2026-05-05 04:58 -37.00590 174.80874 743 ft 116 kts 70°
2026-05-05 04:58 -37.00870 174.81872 898 ft 144 kts 133°
2026-05-05 04:59 -37.01789 174.82584 873 ft 177 kts 148°
2026-05-05 04:59 -37.02936 174.83411 1030 ft 199 kts 148°
2026-05-05 04:59 -37.04167 174.84333 1139 ft 213 kts 147°
2026-05-05 04:59 -37.05462 174.85343 1157 ft 223 kts 146°
2026-05-05 05:00 -37.06639 174.86538 1144 ft 214 kts 130°
2026-05-05 05:00 -37.07346 174.88113 917 ft 194 kts 107°
2026-05-05 05:00 -37.07519 174.89642 749 ft 177 kts 86°
2026-05-05 05:00 -37.07300 174.91139 719 ft 179 kts 71°
2026-05-05 05:01 -37.06709 174.92623 798 ft 189 kts 59°
2026-05-05 05:01 -37.06165 174.93541 813 ft 101 kts 47°
2026-05-05 05:01 -37.05679 174.94135 823 ft 100 kts 48°
2026-05-05 05:01 -37.05207 174.94723 839 ft 87 kts 46°
2026-05-05 05:02 -37.04772 174.95270 718 ft 85 kts 47°
2026-05-05 05:02 -37.04395 174.95773 525 ft 73 kts 47°
2026-05-05 05:02 -37.04048 174.96215 387 ft 71 kts 45°
2026-05-05 05:02 -37.03705 174.96650 266 ft 68 kts 45°
2026-05-05 05:03 -37.03384 174.97067 120 ft 63 kts 46°
2026-05-05 05:03 -37.03134 174.97384 115 ft 27 kts 45°
2026-05-05 05:03 -37.03009 174.97547 113 ft 23 kts 46°
2026-05-05 05:03 -37.03050 174.97663 112 ft 21 kts 129°
2026-05-05 05:04 -37.03109 174.97737 112 ft 16 kts 135°
2026-05-05 05:04 -37.03176 174.97710 112 ft 17 kts 231°
2026-05-05 05:04 -37.03210 174.97615 112 ft 4 kts 156°
2026-05-05 05:04 -37.03211 174.97615 112 ft 0 kts 134°